Tracking 29781 objects as of 15-Oct-2024
HD Live streaming from Space Station
objects crossing your sky now

DELTA 1 DEB

Track DELTA 1 DEB now!
10-day predictions


NORAD ID: 21327
Int'l Code: 1975-052AV
Perigee: 1,094.9 km
Apogee: 1,523.2 km
Inclination: 99.7 °
Period: 111.6 minutes
Semi major axis: 7680 km
RCS: 0.2848 m2 (medium)
Launch date: June 12, 1975
Source: United States (US)
Launch site: AIR FORCE WESTERN TEST RANGE (AFWTR)

Note: This is SATELLITE DEBRIS
Your satellite tracking list
Your tracking list is empty




NASA's NSSDC Master Catalog

Two Line Element Set (TLE):
1 21327U 75052AV  24288.86896505 -.00000002  00000-0  11009-3 0  9992
2 21327  99.7032 253.9504 0278815 173.1167 216.9268 12.89903468572673
Source of the keplerian elements: AFSPC